• Join FlightAware (Why Join?)
  • Login
  • US Flag 
08:47PM EST


 

Airport Tracker/Info


-or-


 

Live Flight TrackerFlight Track Log ✈ EJM77 ✈ 27-Jun-2013 ✈ KDAL - KMSP

Flight Track Log - Related Links

Times and Time Zones

All times are in EDT time to prevent confusion due to time zone crossing. See the EJM77 flight status page for this flight to view local times or setup timezone preferences in your user account.

Time Position Orientation Groundspeed Altitude Reporting Facility
EDT Latitude Longitude Course Direction KTS MPH feet Rate Location/Type
11:04PM 32.8167 -96.8333 151° Southeast 188 216 1,400  Level Dallas / Fort Worth TRACON
11:05PM 32.7667 -96.8000 151° Southeast 213 245 4,100 2,421 Climbing Dallas / Fort Worth TRACON
11:06PM 32.7667 -96.7500 90° East 260 299 6,000 2,105 Climbing Dallas / Fort Worth TRACON
11:07PM 32.8333 -96.7333 12° North 288 331 8,100 2,292 Climbing Dallas / Fort Worth TRACON
11:09PM 32.9842 -96.7622 351° North 292 336 12,800 2,494 Climbing Fort Worth Center
11:10PM 33.0739 -96.7739 354° North 292 336 15,500 2,200 Climbing Fort Worth Center
11:11PM 33.1575 -96.7856 353° North 292 336 17,200 1,800 Climbing Fort Worth Center
11:12PM 33.2494 -96.7975 354° North 319 367 19,100 1,950 Climbing Fort Worth Center
11:13PM 33.3414 -96.8092 354° North 329 379 21,100 1,850 Climbing Fort Worth Center
11:14PM 33.4372 -96.7836 13° North 334 384 22,800 1,500 Climbing Fort Worth Center
11:15PM 33.5119 -96.7283 32° Northeast 334 384 24,100 1,400 Climbing Fort Worth Center
11:16PM 33.5950 -96.6553 36° Northeast 349 402 25,600 1,500 Climbing Fort Worth Center
11:17PM 33.6781 -96.5847 35° Northeast 361 415 27,100 1,400 Climbing Fort Worth Center
11:18PM 33.7653 -96.5114 35° Northeast 375 432 28,400 1,350 Climbing Fort Worth Center
11:19PM 33.8503 -96.4356 37° Northeast 375 432 29,800 1,300 Climbing Fort Worth Center
11:20PM 33.9414 -96.3644 33° Northeast 380 437 31,000 1,150 Climbing Fort Worth Center
11:21PM 34.0328 -96.2881 35° Northeast 385 443 32,100 4,000 Climbing Fort Worth Center
11:22PM 34.1156 -96.2144 36° Northeast 380 437 39,000 1,400 Climbing Fort Worth Center
11:23PM 34.2067 -96.1378 35° Northeast 380 437 34,900 -1,600 Descending Fort Worth Center
11:24PM 34.2997 -96.0611 34° Northeast 385 443 35,800 950 Climbing Fort Worth Center
11:25PM 34.3864 -95.9867 35° Northeast 385 443 36,800 1,000 Climbing Fort Worth Center
11:26PM 34.4772 -95.9069 36° Northeast 390 449 37,800 950 Climbing Fort Worth Center
11:27PM 34.5661 -95.8325 35° Northeast 390 449 38,700 600 Climbing Fort Worth Center
11:28PM 34.6547 -95.7525 37° Northeast 390 449 39,000 250 Climbing Fort Worth Center
11:29PM 34.7497 -95.6722 35° Northeast 402 463 39,200 350 Climbing Fort Worth Center
11:30PM 34.8444 -95.5919 35° Northeast 402 463 39,700 550 Climbing Fort Worth Center
11:31PM 34.9475 -95.5036 35° Northeast 412 474 40,300 600 Climbing Fort Worth Center
11:32PM 35.0400 -95.4256 35° Northeast 412 474 40,900 350 Climbing Fort Worth Center
11:33PM 35.1286 -95.3472 36° Northeast 407 468 41,000 66 Climbing Fort Worth Center
11:34PM 35.1653 -95.3178 33° Northeast 406 467 41,000  Level Memphis Center
11:35PM 35.2519 -95.2389 37° Northeast 400 460 41,000  Level Memphis Center
11:36PM 35.3383 -95.1625 36° Northeast 389 448 41,000  Level Memphis Center
11:37PM 35.4247 -95.0833 37° Northeast 389 448 41,000  Level Memphis Center
11:38PM 35.5131 -95.0092 34° Northeast 384 442 41,000  Level Memphis Center
11:39PM 35.5994 -94.9297 37° Northeast 384 442 41,000  Level Memphis Center
11:39PM 35.6528 -94.8831 35° Northeast 387 445 41,000  Level Kansas City Center
11:40PM 35.7403 -94.8061 36° Northeast 388 447 41,000  Level Kansas City Center
11:41PM 35.8294 -94.7264 36° Northeast 393 452 41,000  Level Kansas City Center
11:42PM 35.9186 -94.6469 36° Northeast 396 456 41,000  Level Kansas City Center
11:43PM 36.0064 -94.5683 36° Northeast 394 453 41,000  Level Kansas City Center
11:44PM 36.1142 -94.4733 35° Northeast 396 456 41,000  Level Kansas City Center
11:45PM 36.2036 -94.3919 36° Northeast 397 457 41,000  Level Kansas City Center
11:46PM 36.2933 -94.3111 36° Northeast 399 459 41,000  Level Kansas City Center
11:47PM 36.3825 -94.2306 36° Northeast 399 459 41,000  Level Kansas City Center
11:48PM 36.4719 -94.1503 36° Northeast 398 458 41,000  Level Kansas City Center
11:49PM 36.5600 -94.0692 36° Northeast 397 457 41,000  Level Kansas City Center
11:51PM 36.6481 -93.9903 36° Northeast 394 453 41,000  Level Kansas City Center
11:52PM 36.7369 -93.9097 36° Northeast 394 453 41,000  Level Kansas City Center
11:53PM 36.8261 -93.8269 37° Northeast 396 456 41,000  Level Kansas City Center
11:54PM 36.9206 -93.7381 37° Northeast 396 456 41,000  Level Kansas City Center
11:55PM 37.0111 -93.6550 36° Northeast 401 461 41,000  Level Kansas City Center
11:56PM 37.1011 -93.5719 36° Northeast 402 463 41,000  Level Kansas City Center
11:57PM 37.1908 -93.4869 37° Northeast 402 463 41,000  Level Kansas City Center
11:58PM 37.2822 -93.4047 36° Northeast 403 464 41,000  Level Kansas City Center
11:59PM 37.3753 -93.3194 36° Northeast 410 472 41,000  Level Kansas City Center
12:00AM 37.4711 -93.2456 31° Northeast 405 466 41,000  Level Kansas City Center
12:01AM 37.5700 -93.1731 30° Northeast 407 468 41,000  Level Kansas City Center
12:02AM 37.6681 -93.0989 31° Northeast 408 470 41,000  Level Kansas City Center
12:03AM 37.7864 -93.0083 31° Northeast 411 473 41,000  Level Kansas City Center
12:04AM 37.8850 -92.9336 31° Northeast 410 472 41,000  Level Kansas City Center
12:05AM 37.9844 -92.8592 31° Northeast 410 472 41,000  Level Kansas City Center
12:06AM 38.0831 -92.7844 31° Northeast 409 471 41,000  Level Kansas City Center
12:07AM 38.1822 -92.7072 31° Northeast 412 474 41,000  Level Kansas City Center
12:08AM 38.2833 -92.6297 31° Northeast 413 475 41,000  Level Kansas City Center
12:09AM 38.3833 -92.5525 31° Northeast 417 480 41,000  Level Kansas City Center
12:10AM 38.4842 -92.4764 31° Northeast 418 481 41,000  Level Kansas City Center
12:11AM 38.5850 -92.4017 30° Northeast 419 482 41,000 -49 Level Kansas City Center
12:12AM 38.6944 -92.3781 10° North 405 466 40,900 -246 Descending Kansas City Center
12:13AM 38.8011 -92.3897 355° North 389 448 40,500 -344 Descending Kansas City Center
12:14AM 38.9011 -92.4047 353° North 367 422 40,200 -246 Descending Kansas City Center
12:15AM 39.0042 -92.4178 354° North 371 427 40,000 -98 Descending Kansas City Center
12:16AM 39.1103 -92.4308 355° North 380 437 40,000  Level Kansas City Center
12:17AM 39.2189 -92.4447 354° North 387 445 40,000  Level Kansas City Center
12:18AM 39.3361 -92.4581 355° North 389 448 40,000 -148 Level Kansas City Center
12:19AM 39.4436 -92.4728 354° North 391 450 39,700 -393 Descending Kansas City Center
12:20AM 39.5508 -92.4856 355° North 390 449 39,200 -492 Descending Kansas City Center
12:21AM 39.6578 -92.4997 354° North 389 448 38,700 -492 Descending Kansas City Center
12:22AM 39.7656 -92.5131 355° North 391 450 38,200 -344 Descending Kansas City Center
12:23AM 39.8733 -92.5261 355° North 391 450 38,000 -98 Descending Kansas City Center
12:24AM 39.9825 -92.5403 354° North 395 455 38,000 -98 Level Kansas City Center
12:25AM 40.1156 -92.5583 354° North 399 459 37,800 -246 Descending Kansas City Center
12:26AM 40.2194 -92.5711 355° North 395 455 37,500 -344 Descending Kansas City Center
12:27AM 40.3331 -92.5861 354° North 398 458 37,100 -344 Descending Kansas City Center
12:28AM 40.4517 -92.6025 354° North 407 468 36,800 -443 Descending Kansas City Center
12:29AM 40.5614 -92.6164 355° North 405 466 36,200 -941 Descending Kansas City Center
12:30AM 40.6344 -92.6261 354° North 392 451 35,200 -1,294 Descending Chicago Center
12:31AM 40.7403 -92.6400 354° North 386 444 34,000 -590 Descending Chicago Center
12:32AM 40.8475 -92.6536 355° North 390 449 34,000  Level Chicago Center
12:33AM 40.9578 -92.6689 354° North 399 459 34,000  Level Chicago Center
12:34AM 41.0678 -92.6839 354° North 401 461 34,000  Level Chicago Center
12:35AM 41.1786 -92.6975 355° North 402 463 34,000  Level Chicago Center
12:36AM 41.3083 -92.7150 354° North 394 453 34,000  Level Chicago Center
12:37AM 41.4169 -92.7303 354° North 395 455 34,000  Level Chicago Center
12:38AM 41.5269 -92.7442 355° North 392 451 34,000  Level Chicago Center
12:39AM 41.6319 -92.7583 354° North 392 451 34,000  Level Chicago Center
12:40AM 41.7383 -92.7714 355° North 387 445 34,000  Level Chicago Center
12:41AM 41.8478 -92.7850 355° North 388 447 34,000  Level Chicago Center
12:42AM 41.9544 -92.8011 354° North 387 445 34,000  Level Chicago Center
12:43AM 42.0617 -92.8158 354° North 389 448 34,000  Level Chicago Center
12:44AM 42.1697 -92.8319 354° North 392 451 34,000  Level Chicago Center
12:45AM 42.2778 -92.8458 355° North 392 451 34,000  Level Chicago Center
12:46AM 42.4083 -92.8644 354° North 394 453 34,000  Level Chicago Center
12:47AM 42.5172 -92.8797 354° North 395 455 34,000  Level Chicago Center
12:48AM 42.6264 -92.8944 354° North 395 455 34,000  Level Chicago Center
12:49AM 42.7344 -92.9097 354° North 393 452 34,000  Level Chicago Center
12:50AM 42.8428 -92.9244 354° North 392 451 34,000 -98 Level Chicago Center
12:51AM 42.9489 -92.9411 353° North 389 448 33,800 -545 Descending Chicago Center
12:52AM 43.0544 -92.9575 354° North 386 444 32,900 -992 Descending Chicago Center
12:53AM 43.1642 -92.9706 355° North 393 452 31,800 -1,033 Descending Chicago Center
12:54AM 43.2731 -92.9872 354° North 396 456 30,800 -1,033 Descending Chicago Center
12:55AM 43.3836 -93.0025 354° North 400 460 29,700 -1,140 Descending Chicago Center
12:56AM 43.4944 -93.0189 354° North 402 463 28,500 -1,537 Descending Chicago Center
12:57AM 43.6039 -93.0353 354° North 399 459 26,600 -1,878 Descending Chicago Center
12:58AM 43.7361 -93.0561 354° North 402 463 24,400 -1,786 Descending Minneapolis Center
12:59AM 43.8572 -93.0689 356° North 389 448 22,700 -1,623 Descending Minneapolis Center
01:00AM 43.9639 -93.0678 360° North 384 442 21,100 -1,339 Descending Minneapolis Center
01:01AM 44.0672 -93.0675 360° North 375 432 20,000 -1,339 Descending Minneapolis Center
01:02AM 44.1683 -93.0683 360° North 366 421 18,400 -2,361 Descending Minneapolis Center
01:03AM 44.2672 -93.0633 North 359 413 15,200 -3,049 Descending Minneapolis Center
01:04AM 44.3611 -93.0417 North 347 399 12,200 -2,281 Descending Minneapolis Center
01:05AM 44.4397 -93.0250 North 287 330 10,600 -1,934 Descending Minneapolis Center
01:07AM 44.5131 -93.0133 North 269 310 8,300 -2,508 Descending Minneapolis Center
01:08AM 44.5964 -93.0292 352° North 253 291 5,500 -2,115 Descending Minneapolis Center
01:09AM 44.6617 -93.0408 353° North 241 277 4,000 -744 Descending Minneapolis Center
01:10AM 44.7156 -93.0492 354° North 200 230 4,000 -397 Level Minneapolis Center
01:11AM 44.7681 -93.0633 349° North 195 224 3,200 -590 Descending Minneapolis Center
01:12AM 44.8122 -93.0867 339° North 170 196 2,800 -639 Descending Minneapolis Center
01:13AM 44.8417 -93.1281 315° West 152 175 1,900 -694 Descending Minneapolis Center
01:14AM 44.8594 -93.1689 302° West 125 144 1,400 -500 Descending Minneapolis Center
01:16AM 44.8667 -93.2167 337° Northwest  Level FlightAware Approximate
01:23AM 44.8820 -93.2218 337° Northwest  Level Estimated